Regional Weather Roundup
Issued by NWS

Home | Current Version | Previous Version | Graphics & Text | Print | Product List | Glossary On
Versions: 1 2 3 4 5 6 7 8 9 10 11 12 13 14 15 16 17 18 19 20 21 22 23 24 25 26 27 28 29 30 31 32 33 34 35 36 37 38 39 40 41 42 43 44 45 46 47 48 49 50
000
ASUS43 KFSD 241510
RWRSD

WEATHER ROUNDUP FOR SOUTH DAKOTA
NATIONAL WEATHER SERVICE SIOUX FALLS SD
1000 AM CDT THU JUL 24 2014

NOTE: "FAIR" INDICATES FEW OR NO CLOUDS BELOW 12,000 FEET WITH NO
SIGNIFICANT WEATHER AND/OR OBSTRUCTIONS TO VISIBILITY.


SDZ001>005-009-010-012>017-241600-
NORTHWEST AND NORTH CENTRAL SOUTH DAKOTA

CITY           SKY/WX    TMP DP  RH WIND       PRES   REMARKS
BUFFALO          N/A     72  62  71 NE17      29.79R
FAITH            N/A     72  62  71 SE22G29   29.82F
MOBRIDGE       CLOUDY    72  61  68 SE24G36   29.80F
$$

SDZ012>016-024>037-041>051-057-063-072>074-241600-
SOUTHWEST AND SOUTH CENTRAL SOUTH DAKOTA

CITY           SKY/WX    TMP DP  RH WIND       PRES   REMARKS
RAPID CTY ARPT MOSUNNY   76  68  76 S7        29.84F
PIERRE         PTSUNNY   73  60  63 SE24G32   29.84F
CUSTER         MOSUNNY   73  50  44 SW6       30.04S
ELLSWORTH AFB  MOSUNNY   76  67  74 S10       29.83F
PHILIP         MOSUNNY   81  66  60 S13       29.80F
PINE RIDGE     SUNNY     78  67  68 S12       29.90F
WINNER         FAIR      80  63  55 SE20G29   29.92F
$$

SDZ004>011-016>023-039-040-241600-
NORTHEAST SOUTH DAKOTA

CITY           SKY/WX    TMP DP  RH WIND       PRES   REMARKS
ABERDEEN       CLOUDY    70  60  70 SE17G24   29.96F
WATERTOWN      PTSUNNY   69  58  67 S14       30.06S
SISSETON         N/A     71  58  63 S13G20    30.04F
$$

SDZ017-020-022-023-036>040-048>070-241600-
SOUTHEAST SOUTH DAKOTA

CITY           SKY/WX    TMP DP  RH WIND       PRES   REMARKS
SIOUX FALLS    PTSUNNY   69  62  78 SE9       30.06R
HURON          LGT RAIN  68  63  84 SE10      29.96F
CHAMBERLAIN    MOSUNNY   73  62  69 SE24G37   29.93F
MITCHELL       MOSUNNY   73  64  73 MISG      29.97F
YANKTON        PTSUNNY   70  63  78 S16       30.05F
$$

ABBREVIATIONS USED IN REMARKS
   TC - TEMPERATURE IN CELSIUS
  WCI - WIND CHILL INDEX
   HX - HEAT INDEX
  VSB - VISIBILITY




USA.gov is the U.S. government's official web portal to all federal, state and local government web resources and services.